Regional Weather Roundup
Issued by NWS Goodland, KS

Home | Current Version | Previous Version | Graphics & Text | Print | Product List | Glossary On
Versions: 1 2 3 4 5 6 7 8 9 10 11 12 13 14 15 16 17 18 19 20 21 22 23 24 25 26 27 28 29 30 31 32 33 34 35 36 37 38 39 40 41 42 43 44 45 46 47 48 49 50
000
ASUS43 KGLD 291608
RWRGLD

GOODLAND FORECAST AREA HOURLY WEATHER ROUNDUP
NATIONAL WEATHER SERVICE GOODLAND KS
1000 AM MDT TUE JUL 29 2014

...OFFICIAL OBSERVATIONS...

CITY           SKY/WX    TMP DP  RH WIND       PRES   REMARKS
GOODLAND KS    PTSUNNY   77  63  61 S14       30.22F
HILL CITY KS   NOT AVBL
IMPERIAL NEB   CLOUDY    69  57  65 SE12      30.24S
MCCOOK NEB     SUNNY     75  57  53 E10       30.23F
AKRON CO       SUNNY     77  59  53 SE9       30.24S
BURLINGTON CO  MOSUNNY   75  63  66 S8        30.23S
LIMON CO       SUNNY     73  59  61 VRB5      30.27F
$$

...UNOFFICIAL OBSERVATIONS...

CITY           SKY/WX    TMP DP  RH WIND       PRES   REMARKS
COLBY KS       SUNNY     79  64  61 SE9       30.22F
LENORA KS        N/A     76  32  20 MISG        N/A
NORTON KS      SUNNY     77  52  41 E9        30.22S
OBERLIN KS     FAIR      77  57  50 SE7       30.22S
SHARON SPRINGS   N/A     77  65  65 S10         N/A
ST FRANCIS KS  PTSUNNY   79  61  53 S6        30.20F
TRIBUNE KS     MOSUNNY   75  46  35 S17       30.22
TRENTON NEB      N/A     73  32  22 SE12        N/A
KIT CARSON CO    N/A     72  64  74 CALM        N/A
YUMA CO          N/A     74  62  66 SE8G15      N/A
$$


USA.gov is the U.S. government's official web portal to all federal, state and local government web resources and services.